This demonstration page uses our WeatherBlox Daily Observations layout. Learn more.

Left ArrowRight Arrow

30.21309, -93.2044

Hourly Observations for May 9, 2022

Temp ( °F °C ) Dew Point ( °F °C ) Humidity (%) Winds ( mph kmh ) Pressure ( in mb ) Visibility ( mi km ) Precip ( " mm )
12:15 am 00:15 Clear 72 22 70 20.9 94 94 SSE 7 11 29.81 1009 10 16 0.00 0.00
12:35 am 00:35 Clear 71 21.6 69 20.6 94 94 SSE 6 9 29.81 1009 7 11 0.00 0.00
12:55 am 00:55 Mostly Cloudy with Mist and Fog 71 21.6 69 20.8 95 95 SSE 6 9 29.81 1009 5 8 0.00 0.00
1:15 am 01:15 Cloudy 73 22.7 71 21.7 94 94 SSE 5 7 29.81 1009 7 11 0.00 0.00
1:35 am 01:35 Cloudy 74 23.2 72 22.2 94 94 S 7 11 29.81 1009 7 11 0.00 0.00
1:55 am 01:55 Cloudy 74 23.2 72 22 93 93 SSE 5 7 29.81 1009 7 11 0.00 0.00
2:15 am 02:15 Cloudy 74 23.1 72 22.1 94 94 SSE 6 9 29.80 1009 7 11 0.00 0.00
2:35 am 02:35 Cloudy with Mist and Fog 73 23 72 22.1 95 95 SSE 7 11 29.80 1009 7 11 0.00 0.00
2:55 am 02:55 Cloudy 74 23.5 73 22.5 94 94 SSE 7 11 29.80 1009 7 11 0.00 0.00
3:15 am 03:15 Cloudy 75 24.1 73 22.5 91 91 S 8 13 29.80 1009 10 16 0.00 0.00
3:35 am 03:35 Cloudy 76 24.3 72 22.4 89 89 SSE 10 17 29.80 1009 10 16 0.00 0.00
3:55 am 03:55 Cloudy 76 24.3 72 22.3 89 89 SSE 8 13 29.80 1009 10 16 0.00 0.00
4:15 am 04:15 Cloudy 75 24 72 22.2 90 90 SSE 7 11 29.81 1009 10 16 0.00 0.00
4:35 am 04:35 Cloudy 75 23.9 72 22.2 90 90 SSE 7 11 29.82 1010 10 16 0.00 0.00
4:55 am 04:55 Cloudy 75 23.7 72 22.1 91 91 SSE 7 11 29.82 1010 10 16 0.00 0.00
5:15 am 05:15 Cloudy 74 23.6 72 22.1 91 91 SSE 6 9 29.82 1010 10 16 0.00 0.00
5:35 am 05:35 Cloudy 74 23.4 71 21.9 91 91 SE 8 13 29.83 1010 10 16 0.00 0.00
6:00 am 06:00 Mostly Cloudy 75 24 72 22 89 89 SSE 8 13 29.83 1010 10 16 0.00 0.00
6:47 am 06:47 Mostly Cloudy 75 24 72 22 89 89 SSE 8 13 29.86 1011 10 16 0.00 0.00
7:49 am 07:49 Mostly Cloudy 75 24 72 22 89 89 SSE 8 13 29.88 1012 10 16 0.00 0.00
8:46 am 08:46 Mostly Cloudy 82 28 72 22 70 70 SSE 16 26 29.90 1013 10 16 0.00 0.00
9:45 am 09:45 Mostly Cloudy 84 29 72 22 66 66 SSE 16 26 29.91 1013 10 16 0.00 0.00
10:50 am 10:50 Mostly Cloudy 86 30 72 22 62 62 SSE 14 22 29.92 1013 10 16 0.00 0.00
11:47 am 11:47 Mostly Cloudy 88 31 73 23 62 62 SSE 16 26 29.93 1014 10 16 0.00 0.00
12:49 pm 12:49 Mostly Cloudy 88 31 73 23 62 62 SSE 14 22 29.93 1014 10 16 0.00 0.00
1:45 pm 13:45 Mostly Cloudy 90 32 73 23 59 59 S 12 19 29.92 1013 10 16 0.00 0.00
2:47 pm 14:47 Partly Cloudy 91 33 72 22 52 52 S 14 22 29.92 1013 10 16 0.00 0.00
3:50 pm 15:50 Partly Cloudy 90 32 72 22 55 55 SSE 13 20 29.91 1013 10 16 0.00 0.00
4:55 pm 16:55 Partly Cloudy 90 32 72 22 55 55 SSE 16 26 29.90 1012 10 16 0.00 0.00
5:45 pm 17:45 Mostly Sunny 90 32 72 22 55 55 SSE 14 22 29.91 1013 10 16 0.00 0.00
6:47 pm 18:47 Mostly Sunny 86 30 72 22 62 62 SSE 15 24 29.91 1013 10 16 0.00 0.00
7:50 pm 19:50 Mostly Sunny 82 28 72 22 70 70 SSE 12 19 29.92 1013 10 16 0.00 0.00
8:50 pm 20:50 Partly Cloudy 77 25 72 22 83 83 SSE 8 13 29.95 1014 10 16 0.00 0.00
9:53 pm 21:53 Mostly Clear 75 24 72 22 89 89 SSE 9 15 29.97 1015 10 16 0.00 0.00
10:15 pm 22:15 Clear 76 24.4 72 22.4 89 89 SSE 8 13 29.98 1015 10 16 0.00 0.00
10:35 pm 22:35 Clear 75 23.9 72 22.2 90 90 SSE 8 13 29.99 1016 10 16 0.00 0.00
10:55 pm 22:55 Clear 75 24.1 72 22.3 90 90 SSE 8 13 29.99 1016 10 16 0.00 0.00
11:15 pm 23:15 Clear 75 24 72 22.3 90 90 SSE 9 15 29.99 1016 10 16 0.00 0.00
11:35 pm 23:35 Clear 75 24 72 22.4 91 91 SSE 9 15 29.99 1016 10 16 0.00 0.00
11:55 pm 23:55 Clear 75 24 72 22.4 91 91 SSE 8 13 29.99 1016 10 16 0.00 0.00

Powered by AerisWeather